Regional Weather Roundup
Issued by NWS Upton, NY

Current Version | Previous Version | Graphics & Text | Print | Product List | Glossary Off
Versions: 1 2 3 4 5 6 7 8 9 10 11 12 13 14 15 16 17 18 19 20 21 22 23 24 25 26 27 28 29 30 31 32 33 34 35 36 37 38 39 40 41 42 43 44 45 46 47 48 49 50

000
ASUS41 KOKX 192308
RWROKX

REGIONAL WEATHER ROUNDUP
NATIONAL WEATHER SERVICE NEW YORK NY
600 PM EST SUN NOV 19 2017

NOTE: "FAIR" INDICATES FEW OR NO CLOUDS BELOW 12,000 FEET WITH NO
SIGNIFICANT WEATHER AND/OR OBSTRUCTIONS TO VISIBILITY.

NYZ071-072-176-178-NJZ106-104-200000-
NEW YORK CITY METRO AREA

CITY           SKY/WX    TMP DP  RH WIND       PRES   REMARKS
Central Park   CLOUDY    45  25  45 NW8       29.69R
Bronx Bot Gard NOT AVBL
LaGuardia APRT PTCLDY    47  27  45 NW16      29.66R
Kennedy INTL   MOCLDY    46  24  42 NW24G32   29.68R
Breezy Point   NOT AVBL
Newark/Liberty MOCLDY    47  25  42 NW12G21   29.67R
Teterboro      CLOUDY    46  25  43 NW12      29.66R
$$

NYZ177-179-078>081-200000-
LONG ISLAND NEW YORK

CITY           SKY/WX    TMP DP  RH WIND       PRES   REMARKS
Jones Beach    NOT AVBL
Matinecock PT  NOT AVBL
Farmingdale    MOCLDY    44  25  47 NW12G20   29.67R
MacArthur/ISP  PTCLDY    43  26  51 NW15G23   29.64R
Shirley        MOCLDY    44  27  51 NW25G37   29.65R
Mt Sinai Harb  NOT AVBL
Westhampton    CLOUDY    44  27  51 NW17G30   29.65R
East Hampton   CLOUDY    44  28  54 W16G30    29.61R
Southold       NOT AVBL
Montauk        NOT AVBL
$$

NYZ052-065-067-200000-
HUDSON VALLEY

CITY           SKY/WX    TMP DP  RH WIND       PRES   REMARKS
White Plains     N/A     42  23  46 W15G28    29.63R
Larchmont Harb NOT AVBL
Croton On Huds NOT AVBL
Newburgh       MOCLDY    41  27  56 NW14G25   29.64R
Montgomery     CLOUDY    42  24  49 NW15G22   29.64R
Poughkeepsie   MOCLDY    42  23  46 W18G24    29.63R
Albany         MOCLDY    36  26  67 W14G32    29.62R WCI  27
$$

NJZ001-105-106-008-010-013-015-019>022-104-200000-
NEW JERSEY

CITY           SKY/WX    TMP DP  RH WIND       PRES   REMARKS
Newark/Liberty MOCLDY    47  25  42 NW12G21   29.67R
Teterboro      CLOUDY    46  25  43 NW12      29.66R
Caldwell       CLOUDY    45  24  43 NW7       29.67R
Somerville     CLOUDY    47  27  45 NW5       29.66R
Linden         NOT AVBL
Perth Amboy    NOT AVBL
Sussex         PTCLDY    42  25  50 W5        29.67R
Andover        NOT AVBL
Trenton        MOCLDY    46  28  49 W12       29.70R
Millville      MOCLDY    47  27  45 W17       29.77R
Atlantic City  MOCLDY    47  26  44 W21G38    29.74R
Wrightstown    CLOUDY    46  28  50 W16G23    29.69R
Toms River     CLOUDY    47  29  49 W14       29.71R
Belmar         CLOUDY    47  28  47 W8        29.69R
$$

PAZ047>061-062-071-200000-
EASTERN PENNSYLVANIA

CITY           SKY/WX    TMP DP  RH WIND       PRES   REMARKS
Philadelphia   MOCLDY    47  24  40 W20G26    29.76R
Allentown      MOCLDY    44  25  47 W14G20    29.71R
Scranton       LGT RAIN  39  30  70 NW15G22   29.68R WCI  31
$$

CTZ002-004>006-009-010-012-RIZ004-006-007-MAZ004-011-015-200000-
SOUTHERN NEW ENGLAND
 IN CT

CITY           SKY/WX    TMP DP  RH WIND       PRES   REMARKS
Bradley INTL   MOCLDY    41  26  55 NW18G29   29.59R
Hartford       MOCLDY    43  24  47 NW17G28   29.61R
Danbury        CLOUDY    42  26  53 NW12G28   29.63R
Wtrbury/Oxford CLOUDY    40  26  57 W9        29.60R WCI  34
Norwalk Harbor NOT AVBL
Bridgeport     CLOUDY    44  27  51 NW15G24   29.63R
Meriden        CLOUDY    43  25  49 NW15G21   29.61R
New Haven      CLOUDY    45  27  49 W8G21     29.62R
Chester        CLOUDY    43  25  49 NW10G21   29.59R
Groton         MOCLDY    44  26  49 NW18G29   29.59R
Wilimantic     CLOUDY    44  26  49 NW15G29   29.58R

 IN RI

CITY           SKY/WX    TMP DP  RH WIND       PRES   REMARKS
Providence     PTCLDY    42  28  57 NW13      29.56R
Block Island   CLOUDY    45  31  58 NW15G22   29.58R
Westerly       PTCLDY    45  28  51 NW10G22   29.58R
 IN MA

CITY           SKY/WX    TMP DP  RH WIND       PRES   REMARKS
Boston         CLEAR     41  26  55 W22G29    29.49R
Worcester      PTCLDY    35  23  61 W23G31    29.47R WCI  23
Westfield      CLOUDY    40  25  55 NW17G25   29.57R WCI  31
Provincetown   CLEAR     43  30  60 W29G37    29.48R
Nantucket      CLEAR     45  32  60 W17G26    29.51R
$$

ANZ330-335-338-340-345-350-353-355-200000-
COASTAL MARINE OBSERVATIONS


STATION/POSITION TIME  SKY/WX   TEMP    WIND        PRES    VSBY  WAVE
                                AIR SEA DIR/SP/G                  HT/PER
                 (UTC)          (F)     (DEG/KT/KT) (MB)    (MI)  (FT/S)
NY HARB ENTRANCE 2150            49 57  320/ 21/ 27 1002.2          4/ 5
20 S FIRE ISLAND 2150            49 57  310/ 25/ 33 1002.3          9/ 9
GREAT SOUTH BAY  2230            45 47  290/ 21/ 27   N/A
HUDSON CANYON    2150            53 60  300/ 23/ 29 1002.2         14/ 9
KINGS POINT      2230            46 52  360/ 19/ 23 1005.0
EXECUTION ROCKS  2230            46     290/ 17/ 27   N/A
WESTERN LI SOUND 2149            46     300/ 23/ 39   N/A           3/ 3
CENTRAL LI SOUND NOT AVBL
ROBBINS REEF     2224            47     310/ 14/ 18 1004.4
$$


>>>>>>>>>>>>>>>>>>>>>>>>>>>> KEY <<<<<<<<<<<<<<<<<<<<<<<<<<<
>                                                          <
>     SKY/WX - Sky Condition/Present Weather               <
>     TMP    - Temperature in Fahrenheit                   <
>     DP     - Dew Point in Fahrenheit                     <
>     RH     - Relative Humidity in Percent                <
>     WIND   - Direction (from) and Speed in MPH           <
>     PRES   - Mean Sea Level Pressure (inches of Hg)      <
>     WCI    - Wind Chill Index                            <
>     VSB    - VISIBILITY IN MILES                         <
>     HX     - HEAT INDEX                                  <
>     TC     - TEMPERATURE IN CELSIUS                      <
>     VRB    - VARIABLE WIND DIRECTION                     <
>                                                          <
>>>>>>>>>>>>>>>>>>>>>>>>>>>> KEY <<<<<<<<<<<<<<<<<<<<<<<<<<<



USA.gov is the U.S. government's official web portal to all federal, state and local government web resources and services.